EW5523 Weather Reports


Display with metric or nautical units.
time (UTC)temp
F
wind
direction
speed
MPH
gust
MPH
rain 1hr
in
rain 24hr
in
rain mn
in
humidity
%
barometer
mb
20260831034525 41 331 0.0 0.0 0.00 0.00 0.00 94 1021.6
20260831033027 40 330 0.0 0.0 0.00 0.00 0.00 95 1021.7
20260831031521 39 330 0.0 0.0 0.00 0.00 0.00 95 1021.7
20260831030023 38 330 0.0 0.0 0.00 0.00 0.00 95 1021.6
20260831024520 37 330 0.0 0.0 0.00 0.00 0.00 95 1021.6
20260831023024 36 330 0.0 0.0 0.00 0.00 0.00 95 1021.6
20260831021519 36 330 0.0 0.0 0.00 0.00 0.00 94 1021.6
20260831020017 36 330 0.0 0.0 0.00 0.00 0.00 94 1021.6
20260831014516 35 330 0.0 0.0 0.00 0.00 0.00 93 1021.5
20260831013015 36 330 0.0 0.0 0.00 0.00 0.00 93 1021.5
20260831011513 36 330 0.0 0.0 0.00 0.00 0.00 93 1021.5
20260831010011 36 330 0.0 0.0 0.00 0.00 0.00 92 1021.5
20260831004511 37 331 0.0 0.0 0.00 0.00 0.00 92 1021.4
20260831003010 38 330 0.0 0.0 0.00 0.00 0.00 93 1021.5
20260831001510 38 330 0.0 0.0 0.00 0.00 0.00 94 1021.5
20260831000010 37 330 0.0 0.0 0.00 0.00 0.00 94 1021.5
20260830234512 37 330 0.0 0.0 0.00 0.00 0.00 93 1021.5
20260830233007 38 330 0.0 0.0 0.00 0.00 0.00 93 1021.5
20260830231506 38 330 0.0 0.0 0.00 0.00 0.00 93 1021.6
20260830230009 38 330 0.0 0.0 0.00 0.00 0.00 94 1021.6
20260830224505 37 330 0.0 0.0 0.00 0.00 0.00 94 1021.7
20260830223002 37 330 0.0 0.0 0.00 0.00 0.00 92 1021.7
20260830221501 37 330 0.0 0.0 0.00 0.00 0.00 92 1021.6
20260830220100 38 330 0.0 0.0 0.00 0.00 0.00 93 1021.6
20260830214626 38 330 0.0 0.0 0.00 0.00 0.00 93 1021.6
20260830213058 37 331 0.0 0.0 0.00 0.00 0.00 93 1021.6
20260830211559 37 331 0.0 0.0 0.00 0.00 0.00 92 1021.6
20260830210053 39 330 0.0 0.0 0.00 0.00 0.00 92 1021.6
20260830204552 39 330 0.0 0.0 0.00 0.00 0.00 92 1021.6
20260830203053 39 330 0.0 0.0 0.00 0.00 0.00 92 1021.6
20260830201549 39 331 0.0 0.0 0.00 0.00 0.00 91 1021.5
20260830200052 40 331 0.0 0.0 0.00 0.00 0.00 91 1021.4
20260830194545 40 331 0.0 0.0 0.00 0.00 0.00 90 1021.3
20260830193112 41 331 0.0 0.0 0.00 0.00 0.00 89 1021.4
20260830191546 42 331 0.0 0.0 0.00 0.00 0.00 88 1021.3
20260830190022 42 331 0.0 0.0 0.00 0.00 0.00 87 1021.4
20260830184522 43 331 0.0 0.0 0.00 0.00 0.00 86 1021.4
20260830183020 44 331 0.0 0.0 0.00 0.00 0.00 85 1021.4
20260830181512 45 331 0.0 0.0 0.00 0.00 0.00 83 1021.4
20260830180017 45 331 0.0 0.0 0.00 0.00 0.00 83 1021.3
20260830174513 46 331 0.0 0.0 0.00 0.00 0.00 83 1021.3
20260830173010 46 331 0.0 0.0 0.00 0.00 0.00 82 1021.3
20260830171508 46 332 0.0 0.0 0.00 0.00 0.00 82 1021.3
20260830170007 47 333 0.0 1.0 0.00 0.00 0.00 82 1021.5
20260830164506 47 344 0.0 0.0 0.00 0.00 0.00 82 1021.4
20260830163010 47 345 0.0 0.0 0.00 0.00 0.00 82 1021.5
20260830161505 47 345 0.0 0.0 0.00 0.00 0.00 83 1021.3
20260830160008 47 345 0.0 0.0 0.00 0.00 0.00 82 1021.3
20260830154504 48 345 0.0 0.0 0.00 0.00 0.00 80 1021.3
20260830153005 48 345 0.0 0.0 0.00 0.00 0.00 79 1021.1
20260830151504 49 345 0.0 0.0 0.00 0.00 0.00 77 1021.0
20260830150003 50 35 0.0 0.0 0.00 0.00 0.00 76 1020.9
20260830144502 50 36 0.0 1.0 0.00 0.00 0.00 74 1020.8
20260830143003 51 18 0.0 1.0 0.00 0.00 0.00 73 1020.7
20260830141500 52 341 0.0 3.0 0.00 0.00 0.00 71 1020.6
20260830140001 52 29 0.0 1.0 0.00 0.00 0.00 71 1020.6
20260830134603 52 27 0.0 0.0 0.00 0.00 0.00 71 1020.6
20260830133110 52 39 0.0 3.0 0.00 0.00 0.00 70 1020.7
20260830131559 52 339 0.0 0.0 0.00 0.00 0.00 69 1020.7
20260830130058 52 307 0.0 0.0 0.00 0.00 0.00 68 1020.8
20260830124558 53 313 0.0 4.0 0.00 0.00 0.00 67 1020.8
20260830123108 52 354 0.0 5.0 0.00 0.00 0.00 67 1020.9
20260830121600 53 354 0.0 3.0 0.00 0.00 0.00 67 1020.9
20260830120056 52 315 0.0 4.0 0.00 0.00 0.00 67 1021.0
20260830114609 52 10 0.0 5.0 0.00 0.00 0.00 69 1021.1
20260830113054 51 325 0.0 7.0 0.00 0.00 0.00 69 1021.2
20260830111553 51 333 0.0 2.0 0.00 0.00 0.00 69 1021.2
20260830110053 51 291 0.0 5.0 0.00 0.00 0.00 69 1021.2
20260830104608 51 291 0.0 4.0 0.00 0.00 0.00 68 1021.2
20260830103056 52 285 0.0 0.0 0.00 0.00 0.00 66 1021.2
20260830101552 52 307 0.0 0.0 0.00 0.00 0.00 65 1021.2
20260830100053 52 335 0.0 3.0 0.00 0.00 0.00 65 1021.1
20260830094550 52 272 0.0 5.0 0.00 0.00 0.00 63 1021.1
20260830093059 51 319 0.0 6.0 0.00 0.00 0.00 64 1021.0
20260830091549 51 337 0.0 5.0 0.00 0.00 0.00 64 1021.0
20260830090048 51 280 0.0 3.0 0.00 0.00 0.00 65 1020.9
20260830084547 51 301 0.0 6.0 0.00 0.00 0.00 66 1020.8
20260830083051 51 311 0.0 6.0 0.00 0.00 0.00 66 1020.7
20260830081543 51 325 0.0 5.0 0.00 0.00 0.00 67 1020.9
20260830080044 50 318 0.0 7.0 0.00 0.00 0.00 70 1021.0
20260830074541 50 328 0.0 2.0 0.00 0.00 0.00 70 1021.0
20260830073038 49 274 0.0 5.0 0.00 0.00 0.00 71 1021.0
20260830071609 49 280 1.0 9.0 0.00 0.00 0.00 71 1021.0
20260830070035 48 301 0.0 7.0 0.00 0.00 0.00 77 1021.2
20260830064533 48 317 0.0 6.0 0.00 0.00 0.00 78 1021.2
20260830063033 48 290 0.0 4.0 0.00 0.00 0.00 78 1021.3
20260830061531 48 324 0.0 8.0 0.00 0.00 0.00 79 1021.3
20260830060028 47 309 0.0 4.0 0.00 0.00 0.00 82 1021.3
20260830054527 47 281 0.0 4.0 0.00 0.00 0.00 83 1021.4
20260830053025 46 45 0.0 0.0 0.00 0.00 0.00 85 1021.4
20260830051522 45 335 0.0 2.0 0.00 0.00 0.00 86 1021.3
20260830050019 44 331 0.0 0.0 0.00 0.00 0.00 87 1021.4
20260830044527 43 283 0.0 2.0 0.00 0.00 0.00 88 1021.3
20260830043015 43 287 0.0 0.0 0.00 0.00 0.00 89 1021.3
20260830041517 42 295 0.0 0.0 0.00 0.00 0.00 90 1021.2
20260830040013 42 310 0.0 2.0 0.00 0.00 0.00 90 1021.2